Location: Essen
(51.4609°N, 7.0127°E)
Time: 03:59:39
(UTC+01:00)

ISS - Pass Details

Date: 14 February 2018
Orbit: 402 x 407 km, 51.6° (Epoch: 23 February)

Event Time Altitude Azimuth Distance (km) Brightness Sun altitude
Rises 18:24:01 0° 277° (W) 2,320 1.6 -6.6°
Reaches altitude 10° 18:27:19 10° 241° (WSW) 1,456 0.4 -7.1°
Maximum altitude 18:28:22 11° 222° (SW) 1,384 -0.2 -7.3°
Drops below altitude 10° 18:29:25 10° 204° (SSW) 1,453 -0.5 -7.5°
Sets 18:32:42 0° 167° (SSE) 2,307 0.0 -8.0°
